This is the latest recevied weather packets stored in our database for station/object N2PUI. If no packets are shown the sender has not sent any weather packets the latest 10 day(s).
| Time | Temp. | Humidity | Pressure | Rain* | Wind** | Luminosity | Snow |
|---|---|---|---|---|---|---|---|
| 1777148663 | 5.56° C | 91% | 1014.9 hPa | 0 mm | - | 72 W/m² | - |
| 1777148359 | 5.56° C | 91% | 1014.8 hPa | 0 mm | - | 75 W/m² | - |
| 1777148055 | 5.56° C | 91% | 1014.7 hPa | 0 mm | - | 70 W/m² | - |
| 1777147752 | 5.56° C | 91% | 1014.7 hPa | 1.27 mm | - | 87 W/m² | - |
| 1777147447 | 5.56° C | 90% | 1014.7 hPa | 1.27 mm | - | 100 W/m² | - |
| 1777147143 | 5° C | 91% | 1014.6 hPa | 0 mm | - | 110 W/m² | - |
| 1777146839 | 5° C | 91% | 1014.4 hPa | 0 mm | - | 124 W/m² | - |
| 1777146535 | 5° C | 91% | 1014.3 hPa | 0 mm | - | 102 W/m² | - |
| 1777146230 | 5° C | 91% | 1014.5 hPa | 0 mm | - | 85 W/m² | - |
| 1777145927 | 5° C | 91% | 1014.7 hPa | 0 mm | - | 95 W/m² | - |
| 1777145624 | 5.56° C | 91% | 1014.5 hPa | 0 mm | - | 87 W/m² | - |
| 1777145323 | 5° C | 91% | 1014.5 hPa | 0 mm | - | 93 W/m² | - |
| 1777145019 | 5° C | 91% | 1014.8 hPa | 0 mm | - | 79 W/m² | - |
| 1777144713 | 5.56° C | 91% | 1014.5 hPa | 0 mm | - | 88 W/m² | - |
| 1777144407 | 5.56° C | 91% | 1014.3 hPa | 0 mm | - | 75 W/m² | - |
| 1777144105 | 5.56° C | 90% | 1014.6 hPa | 0 mm | - | 58 W/m² | - |
| 1777143801 | 5.56° C | 90% | 1014.5 hPa | 0 mm | - | 72 W/m² | - |
| 1777143498 | 5.56° C | 90% | 1014.5 hPa | 0 mm | - | 84 W/m² | - |
| 1777143193 | 5.56° C | 90% | 1014.5 hPa | 0 mm | - | 84 W/m² | - |
| 1777142890 | 5.56° C | 90% | 1014.5 hPa | 0 mm | - | 89 W/m² | - |
| 1777142586 | 5.56° C | 90% | 1014.5 hPa | 0 mm | - | 82 W/m² | - |
| 1777142284 | 5.56° C | 90% | 1014.3 hPa | 1.78 mm | - | 78 W/m² | - |
| 1777141982 | 6.11° C | 90% | 1014.4 hPa | 1.78 mm | - | 88 W/m² | - |
| 1777141679 | 6.11° C | 90% | 1014.5 hPa | 0 mm | - | 113 W/m² | - |
| 1777141377 | 6.11° C | 90% | 1014.2 hPa | 0 mm | - | 97 W/m² | - |
* Rain latest hour (hover to see other rain measurements)
** Current wind speed in m/s (hover to see current wind gust speed)